GW3945 Weather Reports


Display with metric or nautical units.
time (UTC)temp
F
wind
direction
speed
MPH
gust
MPH
rain 1hr
in
rain 24hr
in
rain mn
in
humidity
%
barometer
mb
20260510185348 80 239 0.0 0.0 0.00 0.00 0.00 40 1014.4
20260510184845 80 211 2.0 2.0 0.00 0.00 0.00 41 1014.3
20260510184342 80 226 0.0 1.0 0.00 0.00 0.00 42 1014.3
20260510183841 80 203 0.0 0.0 0.00 0.00 0.00 41 1014.4
20260510183338 80 193 1.0 2.0 0.00 0.00 0.00 42 1014.5
20260510182833 80 188 0.0 0.0 0.00 0.00 0.00 42 1014.7
20260510182330 80 170 0.0 0.0 0.00 0.00 0.00 43 1014.5
20260510181826 79 199 0.0 0.0 0.00 0.00 0.00 41 1014.7
20260510181324 80 173 0.0 0.0 0.00 0.00 0.00 42 1014.6
20260510180819 79 177 0.0 0.0 0.00 0.00 0.00 42 1014.9
20260510180317 79 202 0.0 1.0 0.00 0.00 0.00 43 1014.8
20260510175813 79 160 0.0 0.0 0.00 0.00 0.00 44 1014.9
20260510175309 79 163 0.0 1.0 0.00 0.00 0.00 44 1014.8
20260510174806 79 171 0.0 0.0 0.00 0.00 0.00 43 1014.9
20260510174303 79 143 0.0 0.0 0.00 0.00 0.00 42 1014.7
20260510173800 79 201 2.0 3.0 0.00 0.00 0.00 40 1015.1
20260510173255 79 229 0.0 0.0 0.00 0.00 0.00 44 1015.2
20260510172751 79 157 0.0 1.0 0.00 0.00 0.00 46 1015.2
20260510172247 79 253 0.0 0.0 0.00 0.00 0.00 44 1015.3
20260510171744 78 208 1.0 1.0 0.00 0.00 0.00 44 1015.1
20260510171241 78 309 0.0 0.0 0.00 0.00 0.00 45 1015.1
20260510170739 78 281 3.0 3.0 0.00 0.00 0.00 43 1015.2
20260510170235 78 232 1.0 2.0 0.00 0.00 0.00 43 1015.0
20260510165730 78 162 3.0 5.0 0.00 0.00 0.00 45 1014.9
20260510165226 78 183 0.0 0.0 0.00 0.00 0.00 50 1014.9
20260510164724 78 197 0.0 0.0 0.00 0.00 0.00 49 1015.0
20260510164221 77 168 0.0 0.0 0.00 0.00 0.00 48 1015.1
20260510163716 77 232 2.0 5.0 0.00 0.00 0.00 48 1015.2
20260510163212 77 181 0.0 0.0 0.00 0.00 0.00 51 1015.2
20260510162711 77 174 0.0 0.0 0.00 0.00 0.00 52 1015.1
20260510162209 76 191 0.0 1.0 0.00 0.00 0.00 53 1015.0
20260510161705 76 189 0.0 0.0 0.00 0.00 0.00 54 1015.1
20260510161201 76 236 0.0 0.0 0.00 0.00 0.00 53 1015.0
20260510160658 77 175 0.0 0.0 0.00 0.00 0.00 53 1014.9
20260510160154 77 179 0.0 0.0 0.00 0.00 0.00 53 1015.1
20260510155650 77 182 0.0 0.0 0.00 0.00 0.00 51 1015.3
20260510155146 77 204 0.0 0.0 0.00 0.00 0.00 53 1015.0
20260510154641 76 185 0.0 0.0 0.00 0.00 0.00 54 1015.0
20260510154137 76 180 0.0 0.0 0.00 0.00 0.00 56 1014.8
20260510153637 75 140 0.0 1.0 0.00 0.00 0.00 55 1014.9
20260510153134 75 178 0.0 0.0 0.00 0.00 0.00 57 1014.8
20260510152631 75 192 0.0 0.0 0.00 0.00 0.00 57 1014.9
20260510152127 74 241 0.0 0.0 0.00 0.00 0.00 56 1014.6
20260510151624 74 183 0.0 0.0 0.00 0.00 0.00 58 1014.9
20260510151122 74 246 0.0 0.0 0.00 0.00 0.00 60 1014.9
20260510150622 73 173 0.0 0.0 0.00 0.00 0.00 62 1014.8
20260510150118 73 161 2.0 2.0 0.00 0.00 0.00 66 1015.1
20260510145614 73 197 0.0 0.0 0.00 0.00 0.00 69 1015.2
20260510145111 72 224 2.0 2.0 0.00 0.00 0.00 73 1014.9
20260510144607 71 224 1.0 2.0 0.00 0.00 0.00 74 1015.0
20260510144103 71 226 1.0 2.0 0.00 0.00 0.00 75 1015.1
20260510143559 70 182 0.0 0.0 0.00 0.00 0.00 76 1014.7
20260510143056 70 199 0.0 0.0 0.00 0.00 0.00 77 1014.8
20260510142552 69 221 1.0 2.0 0.00 0.00 0.00 78 1014.8
20260510142049 69 185 0.0 0.0 0.00 0.00 0.00 80 1014.9
20260510141546 69 183 0.0 0.0 0.00 0.00 0.00 80 1014.8
20260510141044 68 187 0.0 0.0 0.00 0.00 0.00 81 1014.8
20260510140540 68 198 0.0 0.0 0.00 0.00 0.00 82 1015.0
20260510140039 67 214 0.0 0.0 0.00 0.00 0.00 83 1014.8
20260510135535 67 193 0.0 0.0 0.00 0.00 0.00 85 1014.8
20260510135032 66 185 0.0 0.0 0.00 0.00 0.00 86 1014.6
20260510134529 66 190 0.0 0.0 0.00 0.00 0.00 87 1014.6
20260510134026 65 223 0.0 0.0 0.00 0.00 0.00 88 1014.7
20260510133521 64 184 0.0 0.0 0.00 0.00 0.00 89 1014.6
20260510133018 63 180 0.0 0.0 0.00 0.00 0.00 89 1014.7
20260510132515 63 182 0.0 0.0 0.00 0.00 0.00 90 1014.9
20260510132011 62 183 0.0 0.0 0.00 0.00 0.00 91 1014.5
20260510131509 61 174 0.0 0.0 0.00 0.00 0.00 91 1014.5
20260510131006 60 174 0.0 0.0 0.00 0.00 0.00 91 1014.3
20260510130502 60 174 0.0 0.0 0.00 0.00 0.00 91 1014.3
20260510130000 59 174 0.0 0.0 0.00 0.00 0.00 92 1014.4
20260510125456 59 174 0.0 0.0 0.00 0.00 0.00 92 1014.3
20260510124953 58 174 0.0 0.0 0.00 0.00 0.00 92 1014.4
20260510124449 58 175 0.0 0.0 0.00 0.00 0.00 92 1014.5
20260510123946 57 185 0.0 0.0 0.00 0.00 0.00 93 1014.6
20260510123441 57 174 0.0 0.0 0.00 0.00 0.00 93 1014.6
20260510122938 56 178 0.0 0.0 0.00 0.00 0.00 93 1014.5
20260510122433 55 188 0.0 0.0 0.00 0.00 0.00 93 1014.5
20260510121929 54 164 0.0 0.0 0.00 0.00 0.00 92 1014.3
20260510121427 56 182 0.0 0.0 0.00 0.00 0.00 94 1014.9
20260510120924 55 211 0.0 0.0 0.00 0.00 0.00 94 1014.4
20260510120421 55 192 0.0 0.0 0.00 0.00 0.00 95 1014.5
20260510115917 55 200 0.0 0.0 0.00 0.00 0.00 95 1014.2
20260510115414 55 189 0.0 0.0 0.00 0.00 0.00 95 1014.1
20260510114910 54 189 0.0 0.0 0.00 0.00 0.00 95 1013.9
20260510114408 54 188 0.0 0.0 0.00 0.00 0.00 95 1013.8
20260510113902 54 189 0.0 0.0 0.00 0.00 0.00 95 1013.8
20260510113359 54 188 0.0 0.0 0.00 0.00 0.00 95 1013.7
20260510112856 53 189 0.0 0.0 0.00 0.00 0.00 94 1013.5
20260510112353 53 189 0.0 0.0 0.00 0.00 0.00 92 1013.2
20260510111848 53 189 0.0 0.0 0.00 0.00 0.00 92 1013.4
20260510111345 53 189 0.0 0.0 0.00 0.00 0.00 92 1013.2
20260510110840 53 189 0.0 0.0 0.00 0.00 0.00 92 1013.0
20260510110338 53 189 0.0 0.0 0.00 0.00 0.00 92 1013.3
20260510105834 54 189 0.0 0.0 0.00 0.00 0.00 93 1012.9
20260510105333 54 189 0.0 0.0 0.00 0.00 0.00 92 1013.0
20260510104830 54 189 0.0 0.0 0.00 0.00 0.00 92 1012.7
20260510104327 54 189 0.0 0.0 0.00 0.00 0.00 92 1012.7
20260510103823 54 189 0.0 0.0 0.00 0.00 0.00 91 1012.6
20260510103320 54 189 0.0 0.0 0.00 0.00 0.00 91 1012.7
20260510102815 54 189 0.0 0.0 0.00 0.00 0.00 91 1012.3
20260510102312 54 189 0.0 0.0 0.00 0.00 0.00 91 1012.5
20260510101809 54 189 0.0 0.0 0.00 0.00 0.00 90 1012.6
20260510101307 54 189 0.0 0.0 0.00 0.00 0.00 89 1012.5
20260510100803 55 189 0.0 0.0 0.00 0.00 0.00 90 1012.4
20260510100301 55 189 0.0 0.0 0.00 0.00 0.00 90 1012.4
20260510095756 55 189 0.0 0.0 0.00 0.00 0.00 89 1012.5
20260510095252 55 189 0.0 0.0 0.00 0.00 0.00 88 1012.5
20260510094750 56 189 0.0 0.0 0.00 0.00 0.00 88 1012.7
20260510094246 56 189 0.0 0.0 0.00 0.00 0.00 87 1012.4
20260510093742 56 190 0.0 0.0 0.00 0.00 0.00 87 1012.3
20260510093239 56 191 0.0 0.0 0.00 0.00 0.00 88 1012.3
20260510092735 56 189 0.0 0.0 0.00 0.00 0.00 88 1012.3
20260510092231 56 189 0.0 0.0 0.00 0.00 0.00 88 1012.2
20260510091727 56 189 0.0 0.0 0.00 0.00 0.00 89 1012.1
20260510091224 55 189 0.0 0.0 0.00 0.00 0.00 89 1012.1
20260510090720 55 189 0.0 0.0 0.00 0.00 0.00 90 1012.1
20260510090218 55 189 0.0 0.0 0.00 0.00 0.00 90 1012.1
20260510085713 55 189 0.0 0.0 0.00 0.00 0.00 91 1012.2
20260510085208 54 189 0.0 0.0 0.00 0.00 0.00 91 1012.1
20260510084704 54 189 0.0 0.0 0.00 0.00 0.00 90 1011.9
20260510084201 54 189 0.0 0.0 0.00 0.00 0.00 90 1012.2
20260510083658 54 189 0.0 0.0 0.00 0.00 0.00 90 1012.1
20260510083155 55 189 0.0 0.0 0.00 0.00 0.00 90 1012.1
20260510082651 56 189 0.0 0.0 0.00 0.00 0.00 91 1012.0
20260510082146 55 190 0.0 0.0 0.00 0.00 0.00 90 1011.9
20260510081641 55 192 0.0 0.0 0.00 0.00 0.00 90 1011.9
20260510081138 55 192 0.0 0.0 0.00 0.00 0.00 90 1011.9
20260510080637 55 189 0.0 0.0 0.00 0.00 0.00 91 1011.9
20260510080134 54 189 0.0 0.0 0.00 0.00 0.00 91 1011.7
20260510075631 54 239 0.0 0.0 0.00 0.00 0.00 92 1011.8
20260510075128 53 194 0.0 0.0 0.00 0.00 0.00 92 1011.5
20260510074625 54 188 0.0 0.0 0.00 0.00 0.00 91 1011.4
20260510074120 53 188 0.0 0.0 0.00 0.00 0.00 91 1011.3
20260510073617 54 188 0.0 0.0 0.00 0.00 0.00 90 1011.2
20260510073114 54 188 0.0 0.0 0.00 0.00 0.00 90 1011.3
20260510072610 55 187 0.0 0.0 0.00 0.00 0.00 90 1011.2
20260510072106 55 187 0.0 0.0 0.00 0.00 0.00 90 1011.2
20260510071557 54 189 0.0 0.0 0.00 0.00 0.00 90 1011.3
20260510071055 54 180 0.0 0.0 0.00 0.00 0.00 90 1011.4
20260510070552 55 186 0.0 0.0 0.00 0.00 0.00 89 1011.3
20260510070049 55 186 0.0 0.0 0.00 0.00 0.00 89 1011.4
20260510065545 55 186 0.0 0.0 0.00 0.00 0.00 88 1011.3
20260510065041 56 186 0.0 0.0 0.00 0.00 0.00 87 1011.1
20260510064538 56 188 0.0 0.0 0.00 0.00 0.00 87 1011.2
20260510064034 56 188 0.0 0.0 0.00 0.00 0.00 86 1011.5
20260510063531 56 191 0.0 0.0 0.00 0.00 0.00 87 1011.1
20260510063029 55 185 0.0 0.0 0.00 0.00 0.00 87 1011.4
20260510062524 55 185 0.0 0.0 0.00 0.00 0.00 88 1011.3
20260510062019 56 185 0.0 0.0 0.00 0.00 0.00 88 1011.5
20260510061516 56 185 0.0 0.0 0.00 0.00 0.00 87 1011.3
20260510061013 56 185 0.0 0.0 0.00 0.00 0.00 86 1011.2
20260510060510 56 185 0.0 0.0 0.00 0.00 0.00 86 1011.4
20260510060006 56 185 0.0 0.0 0.00 0.00 0.00 87 1011.4
20260510055502 57 185 0.0 0.0 0.00 0.00 0.00 85 1011.4
20260510055000 56 186 0.0 0.0 0.00 0.00 0.00 87 1011.3
20260510054455 56 183 0.0 0.0 0.00 0.00 0.00 87 1011.5
20260510053950 58 188 0.0 0.0 0.00 0.00 0.00 85 1011.4
20260510053446 58 188 0.0 0.0 0.00 0.00 0.00 84 1011.4
20260510052942 58 188 0.0 0.0 0.00 0.00 0.00 84 1011.4
20260510052438 58 188 0.0 0.0 0.00 0.00 0.00 84 1011.3
20260510051935 59 189 0.0 0.0 0.00 0.00 0.00 84 1011.4
20260510051431 59 187 0.0 0.0 0.00 0.00 0.00 82 1011.3
20260510050927 59 188 0.0 0.0 0.00 0.00 0.00 81 1011.4
20260510050424 59 199 0.0 0.0 0.00 0.00 0.00 83 1011.2
20260510045922 59 189 0.0 0.0 0.00 0.00 0.00 82 1011.4
20260510045419 59 189 0.0 0.0 0.00 0.00 0.00 79 1011.1
20260510044915 58 190 0.0 0.0 0.00 0.00 0.00 81 1011.3
20260510044412 59 187 0.0 0.0 0.00 0.00 0.00 84 1011.3
20260510043909 59 187 0.0 0.0 0.00 0.00 0.00 84 1011.3
20260510043405 59 187 0.0 0.0 0.00 0.00 0.00 82 1011.2
20260510042903 59 187 0.0 0.0 0.00 0.00 0.00 82 1011.2
20260510042359 59 187 0.0 0.0 0.00 0.00 0.00 83 1011.3
20260510041855 59 187 0.0 0.0 0.00 0.00 0.00 84 1011.1
20260510041352 59 187 0.0 0.0 0.00 0.00 0.00 83 1011.3
20260510040849 59 187 0.0 0.0 0.00 0.00 0.00 83 1011.3
20260510040346 59 190 0.0 0.0 0.00 0.00 0.00 83 1011.3
20260510035842 60 184 0.0 0.0 0.00 0.00 0.00 83 1011.4
20260510035338 60 184 0.0 0.0 0.00 0.00 0.00 83 1011.4
20260510034833 60 184 0.0 0.0 0.00 0.00 0.00 82 1011.2
20260510034332 60 184 0.0 0.0 0.00 0.00 0.00 82 1011.2
20260510033828 60 184 0.0 0.0 0.00 0.00 0.00 82 1011.4
20260510033325 60 185 0.0 0.0 0.00 0.00 0.00 81 1011.3
20260510032821 60 186 0.0 0.0 0.00 0.00 0.00 82 1011.5
20260510032318 60 186 0.0 0.0 0.00 0.00 0.00 82 1011.3
20260510031814 60 187 0.0 0.0 0.00 0.00 0.00 82 1011.2
20260510031309 61 186 0.0 0.0 0.00 0.00 0.00 80 1011.4
20260510030803 61 185 0.0 0.0 0.00 0.00 0.00 79 1011.0
20260510030300 61 185 0.0 0.0 0.00 0.00 0.00 77 1011.1
20260510025758 61 212 0.0 0.0 0.00 0.00 0.00 78 1010.9
20260510025255 61 183 0.0 0.0 0.00 0.00 0.00 80 1010.9
20260510024751 61 183 0.0 0.0 0.00 0.00 0.00 79 1010.9
20260510024248 62 184 0.0 0.0 0.00 0.00 0.00 79 1010.8
20260510023744 62 186 0.0 0.0 0.00 0.00 0.00 79 1010.9
20260510023241 62 185 0.0 0.0 0.00 0.00 0.00 78 1010.8
20260510022738 62 185 0.0 0.0 0.00 0.00 0.00 78 1010.9
20260510022237 62 185 0.0 0.0 0.00 0.00 0.00 78 1010.7
20260510021732 63 185 0.0 0.0 0.00 0.00 0.00 76 1010.6
20260510021230 63 193 0.0 0.0 0.00 0.00 0.00 74 1010.7
20260510020731 63 187 0.0 0.0 0.00 0.00 0.00 73 1010.8
20260510020226 64 185 0.0 0.0 0.00 0.00 0.00 75 1010.6
20260510015722 64 185 0.0 0.0 0.00 0.00 0.00 74 1010.3
20260510015218 64 184 0.0 0.0 0.00 0.00 0.00 73 1010.4
20260510014713 64 186 0.0 0.0 0.00 0.00 0.00 71 1010.3
20260510014211 64 184 0.0 0.0 0.00 0.00 0.00 73 1010.3
20260510013706 65 184 0.0 0.0 0.00 0.00 0.00 73 1010.1
20260510013202 65 184 0.0 0.0 0.00 0.00 0.00 72 1010.1
20260510012702 66 183 0.0 0.0 0.00 0.00 0.00 71 1010.1
20260510012157 66 183 0.0 0.0 0.00 0.00 0.00 69 1010.0
20260510011652 66 183 0.0 0.0 0.00 0.00 0.00 68 1009.8
20260510011148 67 183 0.0 0.0 0.00 0.00 0.00 65 1010.0
20260510010644 67 183 0.0 0.0 0.00 0.00 0.00 64 1009.9
20260510010142 68 183 0.0 0.0 0.00 0.00 0.00 65 1009.9
20260510005637 68 183 0.0 0.0 0.00 0.00 0.00 63 1009.8
20260510005134 69 183 0.0 0.0 0.00 0.00 0.00 61 1009.7
20260510004633 69 184 0.0 0.0 0.00 0.00 0.00 60 1009.7
20260510004131 69 183 0.0 0.0 0.00 0.00 0.00 58 1009.6
20260510003628 70 183 0.0 0.0 0.00 0.00 0.00 59 1009.5
20260510003123 71 183 0.0 0.0 0.00 0.00 0.00 56 1009.4
20260510002618 71 183 0.0 0.0 0.00 0.00 0.00 54 1009.7
20260510002115 71 185 0.0 0.0 0.00 0.00 0.00 53 1009.3
20260510001612 72 183 0.0 0.0 0.00 0.00 0.00 53 1009.4
20260510001111 72 182 0.0 0.0 0.00 0.00 0.00 53 1009.4
20260510000611 72 183 0.0 0.0 0.00 0.00 0.00 51 1009.6
20260510000108 73 182 0.0 0.0 0.00 0.00 0.00 49 1009.6
20260509235604 73 182 0.0 0.0 0.00 0.00 0.00 48 1009.4
20260509235102 74 182 0.0 0.0 0.00 0.00 0.00 46 1009.1
20260509234557 74 182 0.0 0.0 0.00 0.00 0.00 46 1009.2
20260509234055 74 180 0.0 0.0 0.00 0.00 0.00 46 1009.2
20260509233553 74 190 0.0 0.0 0.00 0.00 0.00 45 1009.4
20260509233050 74 204 0.0 0.0 0.00 0.00 0.00 44 1009.4
20260509232546 75 216 0.0 0.0 0.00 0.00 0.00 46 1009.3
20260509232043 75 180 0.0 0.0 0.00 0.00 0.00 45 1009.5
20260509231539 75 181 0.0 0.0 0.00 0.00 0.00 44 1009.4
20260509231038 75 178 0.0 0.0 0.00 0.00 0.00 47 1009.5
20260509230534 75 179 0.0 0.0 0.00 0.00 0.00 45 1009.1
20260509230031 76 176 0.0 0.0 0.00 0.00 0.00 45 1009.1
20260509225526 76 176 0.0 0.0 0.00 0.00 0.00 47 1009.2
20260509225022 78 197 0.0 0.0 0.00 0.00 0.00 42 1009.0
20260509224518 78 187 0.0 0.0 0.00 0.00 0.00 42 1008.9
20260509224015 80 255 1.0 2.0 0.00 0.00 0.00 40 1009.2
20260509223512 79 221 0.0 0.0 0.00 0.00 0.00 39 1009.2
20260509223010 79 186 0.0 0.0 0.00 0.00 0.00 42 1009.2
20260509222505 79 186 0.0 0.0 0.00 0.00 0.00 43 1009.3
20260509222001 78 180 0.0 0.0 0.00 0.00 0.00 42 1009.2
20260509221457 78 177 0.0 0.0 0.00 0.00 0.00 41 1009.1
20260509220953 79 214 0.0 0.0 0.00 0.00 0.00 40 1009.1
20260509220449 78 202 0.0 0.0 0.00 0.00 0.00 43 1009.2
20260509215945 78 183 0.0 0.0 0.00 0.00 0.00 41 1009.0
20260509215441 78 201 0.0 0.0 0.00 0.00 0.00 41 1009.0
20260509214939 78 174 0.0 0.0 0.00 0.00 0.00 43 1008.9
20260509214436 79 335 0.0 0.0 0.00 0.00 0.00 43 1008.6
20260509213932 80 185 0.0 0.0 0.00 0.00 0.00 43 1008.9
20260509213428 80 203 0.0 0.0 0.00 0.00 0.00 41 1008.8
20260509212926 78 193 0.0 0.0 0.00 0.00 0.00 44 1008.8
20260509212423 80 184 0.0 0.0 0.00 0.00 0.00 42 1008.9
20260509211919 79 221 0.0 0.0 0.00 0.00 0.00 43 1008.8
20260509211415 79 179 0.0 0.0 0.00 0.00 0.00 44 1008.5
20260509210911 79 192 0.0 0.0 0.00 0.00 0.00 47 1008.4
20260509210409 77 218 0.0 0.0 0.00 0.00 0.00 46 1008.6
20260509205904 77 178 0.0 0.0 0.00 0.00 0.00 49 1008.6
20260509205403 77 198 0.0 0.0 0.00 0.00 0.00 46 1008.5
20260509204900 77 181 0.0 0.0 0.00 0.00 0.00 46 1008.8
20260509204356 76 178 0.0 0.0 0.00 0.00 0.00 49 1008.4
20260509203853 76 194 0.0 0.0 0.00 0.00 0.00 48 1008.8
20260509203349 76 183 0.0 0.0 0.00 0.00 0.00 49 1008.8
20260509202847 76 198 0.0 1.0 0.00 0.00 0.00 46 1008.8
20260509202342 76 209 0.0 0.0 0.00 0.00 0.00 53 1008.9
20260509201837 75 169 0.0 0.0 0.00 0.00 0.00 54 1008.8
20260509201333 75 177 0.0 0.0 0.00 0.00 0.00 51 1009.1
20260509200830 76 165 0.0 0.0 0.00 0.00 0.00 51 1008.9
20260509200326 76 204 0.0 1.0 0.00 0.00 0.00 49 1009.1
20260509195823 75 181 0.0 0.0 0.00 0.00 0.00 57 1009.1
20260509195322 75 175 0.0 0.0 0.00 0.00 0.00 54 1009.3
20260509194822 75 270 3.0 3.0 0.00 0.00 0.00 51 1009.4
20260509194319 75 172 0.0 0.0 0.00 0.00 0.00 52 1009.3
20260509193815 75 203 0.0 0.0 0.00 0.00 0.00 55 1009.4
20260509193315 74 186 0.0 1.0 0.00 0.00 0.00 53 1009.6
20260509192812 74 203 0.0 0.0 0.00 0.00 0.00 54 1009.5
20260509192308 74 180 0.0 0.0 0.00 0.00 0.00 58 1009.3
20260509191803 74 252 0.0 0.0 0.00 0.00 0.00 56 1009.4
20260509191259 73 243 0.0 0.0 0.00 0.00 0.00 59 1009.5
20260509190755 72 180 0.0 0.0 0.00 0.00 0.00 59 1009.5
20260509190253 73 170 0.0 0.0 0.00 0.00 0.00 58 1009.4